EW7966 Weather Reports


Display with metric or nautical units.
time (UTC)temp
F
wind
direction
speed
MPH
gust
MPH
rain 1hr
in
rain 24hr
in
rain mn
in
humidity
%
barometer
mb
20260903120007 60 157 6.0 9.0 0.00 0.00 0.00 49 1002.4
20260903115505 58 150 4.0 9.0 0.00 0.00 0.00 51 1017.3
20260903115009 57 188 1.0 4.0 0.00 0.00 0.00 54 1017.2
20260903114505 58 188 1.0 4.0 0.00 0.00 0.00 53 1017.2
20260903114010 58 188 3.0 5.0 0.00 0.00 0.00 53 1017.2
20260903113505 58 188 3.0 7.0 0.00 0.00 0.00 54 1017.3
20260903113009 57 161 4.0 8.0 0.00 0.00 0.00 54 1017.3
20260903113007 57 161 4.0 8.0 0.00 0.00 0.00 54 1002.3
20260903112006 56 142 6.0 9.0 0.00 0.00 0.00 58 1017.3
20260903111505 56 138 6.0 9.0 0.00 0.00 0.00 59 1017.4
20260903111503 56 138 6.0 9.0 0.00 0.00 0.00 59 1002.4
20260903111007 56 128 1.0 2.0 0.00 0.00 0.00 59 1017.3
20260903110506 55 128 0.0 3.0 0.00 0.00 0.00 61 1017.2
20260903110007 55 128 1.0 3.0 0.00 0.00 0.00 63 1017.1
20260903110005 55 128 1.0 3.0 0.00 0.00 0.00 63 1002.1
20260903105505 55 128 1.0 4.0 0.00 0.00 0.00 64 1017.1
20260903104505 54 128 3.0 4.0 0.00 0.00 0.00 66 1017.1
20260903103505 54 128 2.0 3.0 0.00 0.00 0.00 70 1017.0
20260903103007 54 128 0.0 2.0 0.00 0.00 0.00 69 1017.0
20260903103004 54 128 0.0 2.0 0.00 0.00 0.00 69 1001.9
20260903102506 55 128 0.0 2.0 0.00 0.00 0.00 68 1017.1
20260903102006 56 128 0.0 4.0 0.00 0.00 0.00 67 1017.2
20260903101507 56 128 3.0 4.0 0.00 0.00 0.00 66 1017.2
20260903101505 56 128 3.0 4.0 0.00 0.00 0.00 66 1002.0
20260903101007 57 128 3.0 4.0 0.00 0.00 0.00 65 1017.3
20260903100506 58 240 0.0 3.0 0.00 0.00 0.00 64 1017.2
20260903100006 57 240 2.0 4.0 0.00 0.00 0.00 66 1017.1
20260903095505 57 240 3.0 4.0 0.00 0.00 0.00 67 1017.0
20260903095006 56 240 2.0 5.0 0.00 0.00 0.00 68 1017.0
20260903094505 56 207 1.0 8.0 0.00 0.00 0.00 68 1017.0
20260903094503 56 207 0.0 8.0 0.00 0.00 0.00 68 1001.8
20260903094006 56 207 4.0 8.0 0.00 0.00 0.00 69 1017.1
20260903093505 55 189 3.0 5.0 0.00 0.00 0.00 70 1017.2
20260903093006 55 189 3.0 6.0 0.00 0.00 0.00 70 1002.0
20260903092505 55 198 4.0 7.0 0.00 0.00 0.00 70 1017.2
20260903092007 55 229 3.0 7.0 0.00 0.00 0.00 69 1017.2
20260903091506 56 213 4.0 6.0 0.00 0.00 0.00 70 1017.1
20260903091005 55 213 4.0 7.0 0.00 0.00 0.00 69 1017.1
20260903090505 56 199 2.0 6.0 0.00 0.00 0.00 69 1017.3
20260903090010 55 199 3.0 6.0 0.00 0.00 0.00 71 1001.8
20260903085506 55 199 3.0 4.0 0.00 0.00 0.00 70 1017.3
20260903085005 55 199 0.0 2.0 0.00 0.00 0.00 69 1017.1
20260903084506 56 199 2.0 2.0 0.00 0.00 0.00 69 1016.9
20260903084503 56 199 1.0 2.0 0.00 0.00 0.00 69 1001.5
20260903084007 56 199 1.0 2.0 0.00 0.00 0.00 69 1017.0
20260903083505 56 199 1.0 3.0 0.00 0.00 0.00 69 1017.1
20260903083005 56 199 1.0 4.0 0.00 0.00 0.00 69 1001.7
20260903082505 56 199 3.0 4.0 0.00 0.00 0.00 70 1017.1
20260903082007 55 199 3.0 4.0 0.00 0.00 0.00 71 1017.1
20260903081504 55 199 3.0 4.0 0.00 0.00 0.00 71 1001.9
20260903081006 55 199 3.0 4.0 0.00 0.00 0.00 70 1017.3
20260903080505 56 199 2.0 4.0 0.00 0.00 0.00 69 1017.4
20260903080008 56 199 2.0 4.0 0.00 0.00 0.00 69 1017.3
20260903080004 56 199 1.0 4.0 0.00 0.00 0.00 69 1001.9
20260903075505 56 199 3.0 4.0 0.00 0.00 0.00 69 1017.3
20260903075006 56 199 3.0 4.0 0.00 0.00 0.00 69 1017.4
20260903074505 57 199 3.0 5.0 0.00 0.00 0.00 68 1017.6
20260903074503 57 199 2.0 5.0 0.00 0.00 0.00 68 1002.2
20260903074005 57 199 2.0 4.0 0.00 0.00 0.00 68 1017.6
20260903073505 57 199 2.0 5.0 0.00 0.00 0.00 68 1017.5
20260903073006 57 199 4.0 5.0 0.00 0.00 0.00 67 1017.5
20260903072505 57 199 3.0 5.0 0.00 0.00 0.00 67 1017.6
20260903072006 57 199 4.0 5.0 0.00 0.00 0.00 67 1017.6
20260903071509 57 205 2.0 5.0 0.00 0.00 0.00 67 1002.2
20260903071505 57 205 3.0 5.0 0.00 0.00 0.00 67 1017.6
20260903071006 57 220 3.0 5.0 0.00 0.00 0.00 67 1017.6
20260903070505 58 211 3.0 4.0 0.00 0.00 0.00 66 1017.6
20260903070008 58 211 2.0 3.0 0.00 0.00 0.00 66 1017.6
20260903070005 58 211 2.0 3.0 0.00 0.00 0.00 66 1002.2
20260903065505 58 211 0.0 3.0 0.00 0.00 0.00 67 1017.6
20260903065006 58 211 1.0 4.0 0.00 0.00 0.00 67 1017.6
20260903064505 58 211 3.0 4.0 0.00 0.00 0.00 66 1017.6
20260903064503 58 211 3.0 4.0 0.00 0.00 0.00 66 1002.1
20260903064006 58 211 2.0 6.0 0.00 0.00 0.00 67 1017.7
20260903063506 58 222 4.0 6.0 0.00 0.00 0.00 68 1017.8
20260903063006 57 223 4.0 7.0 0.00 0.00 0.00 69 1018.0
20260903063003 57 223 3.0 7.0 0.00 0.00 0.00 69 1002.5
20260903062505 56 222 3.0 5.0 0.00 0.00 0.00 70 1017.9
20260903062006 56 223 3.0 5.0 0.00 0.00 0.00 70 1017.8
20260903061507 56 223 3.0 5.0 0.00 0.00 0.00 69 1002.3
20260903061007 57 103 2.0 7.0 0.00 0.00 0.00 67 1017.5
20260903060506 57 103 4.0 8.0 0.00 0.00 0.00 67 1017.5
20260903060008 58 82 3.0 7.0 0.00 0.00 0.00 65 1002.1
20260903055505 58 294 3.0 5.0 0.00 0.00 0.00 64 1017.7
20260903055005 59 294 4.0 5.0 0.00 0.00 0.00 64 1017.8
20260903054502 59 294 3.0 5.0 0.00 0.00 0.00 63 1002.3
20260903053504 60 294 1.0 3.0 0.00 0.00 0.00 62 1017.6
20260903053005 60 294 1.0 3.0 0.00 0.00 0.00 62 1017.6
20260903053003 60 294 1.0 3.0 0.00 0.00 0.00 62 1002.1
20260903052006 60 294 1.0 2.0 0.00 0.00 0.00 62 1017.7
20260903051505 60 294 0.0 2.0 0.00 0.00 0.00 62 1017.6
20260903051502 60 294 0.0 2.0 0.00 0.00 0.00 62 1002.0
20260903051006 60 294 0.0 2.0 0.00 0.00 0.00 61 1017.6
20260903050500 61 294 1.0 2.0 0.00 0.00 0.00 59 1017.6
20260903050006 61 294 0.0 1.0 0.00 0.00 0.00 60 1017.6
20260903045506 62 294 0.0 1.0 0.00 0.00 0.00 59 1017.8
20260903045004 62 294 0.0 3.0 0.00 0.00 0.00 59 1017.9
20260903044504 62 294 0.0 3.0 0.00 0.00 0.00 59 1018.0
20260903044005 62 294 1.0 4.0 0.00 0.00 0.00 59 1018.0
20260903043006 62 294 5.0 8.0 0.00 0.00 0.00 59 1002.5
20260903042504 62 310 3.0 4.0 0.00 0.00 0.00 59 1017.9
20260903042006 63 9 1.0 5.0 0.00 0.00 0.00 58 1017.9
20260903041558 63 5 0.0 5.0 0.00 0.00 0.00 57 1002.1
20260903041005 64 23 3.0 5.0 0.00 0.00 0.00 56 1017.7
20260903040504 65 23 3.0 5.0 0.00 0.00 0.00 54 1017.6
20260903040004 66 5 1.0 5.0 0.00 0.00 0.00 53 1001.8
20260903034504 68 343 1.0 5.0 0.00 0.00 0.00 48 1017.6
20260903034502 68 343 1.0 5.0 0.00 0.00 0.00 48 1001.9
20260903034006 68 332 2.0 11.0 0.00 0.00 0.00 47 1017.8
20260903033503 69 5 1.0 12.0 0.00 0.00 0.00 46 1017.8
20260903033004 69 5 3.0 14.0 0.00 0.00 0.00 45 1017.7
20260903033002 69 5 3.0 14.0 0.00 0.00 0.00 45 1001.9
20260903032504 69 319 6.0 14.0 0.00 0.00 0.00 45 1017.5
20260903032005 70 311 8.0 16.0 0.00 0.00 0.00 43 1017.4
20260903031505 71 329 6.0 20.0 0.00 0.00 0.00 41 1001.5
20260903031008 72 301 12.0 20.0 0.00 0.00 0.00 37 1017.0
20260903030504 73 290 10.0 14.0 0.00 0.00 0.00 35 1016.9
20260903030003 73 213 1.0 3.0 0.00 0.00 0.00 32 1001.1
20260903025504 74 213 1.0 5.0 0.00 0.00 0.00 31 1016.7
20260903025005 74 213 3.0 5.0 0.00 0.00 0.00 30 1016.6
20260903024504 75 213 1.0 3.0 0.00 0.00 0.00 30 1016.5
20260903024005 75 213 2.0 4.0 0.00 0.00 0.00 29 1016.4
20260903023504 76 213 2.0 5.0 0.00 0.00 0.00 28 1016.3
20260903023003 76 213 1.0 7.0 0.00 0.00 0.00 28 1000.5
20260903022005 76 205 5.0 8.0 0.00 0.00 0.00 28 1016.1
20260903021503 75 302 3.0 8.0 0.00 0.00 0.00 29 1000.2
20260903021006 74 204 4.0 7.0 0.00 0.00 0.00 31 1015.9
20260903020007 74 273 2.0 4.0 0.00 0.00 0.00 32 1015.9
20260903020003 74 273 2.0 4.0 0.00 0.00 0.00 32 1000.2
20260903015504 74 302 2.0 6.0 0.00 0.00 0.00 32 1015.8
20260903015006 74 201 4.0 8.0 0.00 0.00 0.00 30 1015.6
20260903014504 73 192 4.0 8.0 0.00 0.00 0.00 32 1015.4
20260903014502 73 192 4.0 8.0 0.00 0.00 0.00 32 999.6
20260903014004 71 168 4.0 7.0 0.00 0.00 0.00 34 1015.3
20260903013505 72 129 0.0 3.0 0.00 0.00 0.00 37 1015.4
20260903013006 72 129 2.0 4.0 0.00 0.00 0.00 33 1015.4
20260903013002 72 129 1.0 4.0 0.00 0.00 0.00 33 999.5
20260903012504 73 129 1.0 4.0 0.00 0.00 0.00 32 1015.3
20260903012006 74 129 0.0 1.0 0.00 0.00 0.00 34 1015.3
20260903011503 75 129 0.0 2.0 0.00 0.00 0.00 35 999.4
20260903011007 75 129 1.0 4.0 0.00 0.00 0.00 32 1015.3
20260903010504 75 129 3.0 5.0 0.00 0.00 0.00 33 1015.3
20260903010007 76 129 4.0 8.0 0.00 0.00 0.00 32 1015.3
20260903010003 76 129 3.0 8.0 0.00 0.00 0.00 32 999.4
20260903005504 76 129 3.0 12.0 0.00 0.00 0.00 32 1015.4
20260903005006 77 120 7.0 14.0 0.00 0.00 0.00 31 1015.4
20260903004502 77 119 11.0 14.0 0.00 0.00 0.00 30 999.4
20260903004006 77 157 7.0 13.0 0.00 0.00 0.00 31 1015.2
20260903003505 78 136 8.0 15.0 0.00 0.00 0.00 31 1015.2
20260903003005 79 104 9.0 15.0 0.00 0.00 0.00 30 1015.2
20260903003002 79 104 9.0 15.0 0.00 0.00 0.00 30 999.3
20260903002504 79 92 10.0 14.0 0.00 0.00 0.00 30 1015.2
20260903002005 79 93 10.0 17.0 0.00 0.00 0.00 30 1015.2
20260903001505 80 106 13.0 17.0 0.00 0.00 0.00 30 1015.2
20260903001502 80 106 12.0 17.0 0.00 0.00 0.00 30 999.3
20260903001001 80 105 11.0 17.0 0.00 0.00 0.00 29 1015.2
20260903000505 80 103 12.0 17.0 0.00 0.00 0.00 29 1015.3
20260903000007 80 104 11.0 18.0 0.00 0.00 0.00 30 1015.3
20260903000004 80 104 10.0 18.0 0.00 0.00 0.00 30 999.4
20260902235504 80 115 14.0 19.0 0.00 0.00 0.00 30 1015.4
20260902235005 80 87 12.0 19.0 0.00 0.00 0.00 29 1015.4
20260902234504 81 107 11.0 18.0 0.00 0.00 0.00 29 1015.4
20260902234502 81 107 10.0 18.0 0.00 0.00 0.00 29 999.5
20260902234005 81 130 12.0 18.0 0.00 0.00 0.00 27 1015.4
20260902233504 81 107 12.0 17.0 0.00 0.00 0.00 29 1015.5
20260902233002 81 120 10.0 17.0 0.00 0.00 0.00 28 999.7
20260902232505 81 109 10.0 18.0 0.00 0.00 0.00 27 1015.4
20260902232006 82 128 13.0 18.0 0.00 0.00 0.00 27 1015.6
20260902231505 81 98 11.0 18.0 0.00 0.00 0.00 27 1015.6
20260902231005 81 115 11.0 17.0 0.00 0.00 0.00 29 1015.7
20260902230504 81 90 11.0 19.0 0.00 0.00 0.00 29 1015.6
20260902230003 80 117 10.0 21.0 0.00 0.00 0.00 31 999.9
20260902225504 81 110 13.0 18.0 0.00 0.00 0.00 30 1015.8
20260902225005 81 96 10.0 16.0 0.00 0.00 0.00 32 1015.8
20260902224505 81 102 13.0 21.0 0.00 0.00 0.00 30 1015.9
20260902224503 81 102 12.0 21.0 0.00 0.00 0.00 30 1000.1
20260902223504 81 84 9.0 18.0 0.00 0.00 0.00 30 1016.0
20260902223103 81 69 9.0 20.0 0.00 0.00 0.00 30 1000.3
20260902222505 81 113 14.0 20.0 0.00 0.00 0.00 30 1016.2
20260902222006 80 110 8.0 14.0 0.00 0.00 0.00 30 1016.3
20260902221506 80 65 11.0 14.0 0.00 0.00 0.00 30 1016.3
20260902221503 80 65 10.0 14.0 0.00 0.00 0.00 30 1000.4
20260902221004 79 75 9.0 14.0 0.00 0.00 0.00 31 1016.4
20260902220503 80 88 9.0 19.0 0.00 0.00 0.00 30 1016.5
20260902220006 81 126 12.0 19.0 0.00 0.00 0.00 27 1000.7
20260902215505 82 110 12.0 16.0 0.00 0.00 0.00 29 1016.5
20260902215006 81 62 9.0 15.0 0.00 0.00 0.00 29 1016.6
20260902214506 80 67 10.0 15.0 0.00 0.00 0.00 30 1016.7
20260902214502 80 67 10.0 15.0 0.00 0.00 0.00 30 1000.9
20260902214007 79 65 8.0 14.0 0.00 0.00 0.00 31 1016.8
20260902213504 79 80 9.0 18.0 0.00 0.00 0.00 30 1016.9
20260902213006 80 122 9.0 18.0 0.00 0.00 0.00 29 1016.9
20260902213004 80 122 9.0 18.0 0.00 0.00 0.00 29 1001.2
20260902212505 80 87 5.0 16.0 0.00 0.00 0.00 28 1016.9
20260902212005 80 126 7.0 16.0 0.00 0.00 0.00 30 1017.0
20260902211505 80 111 10.0 14.0 0.00 0.00 0.00 31 1001.4
20260902211001 79 86 9.0 13.0 0.00 0.00 0.00 32 1017.4
20260902210504 79 91 9.0 13.0 0.00 0.00 0.00 29 1017.4
20260902210006 79 75 7.0 13.0 0.00 0.00 0.00 31 1017.5
20260902205503 78 88 9.0 13.0 0.00 0.00 0.00 32 1017.6
20260902204505 77 85 5.0 13.0 0.00 0.00 0.00 32 1017.8
20260902204502 77 85 4.0 13.0 0.00 0.00 0.00 32 1002.0
20260902204005 77 109 5.0 13.0 0.00 0.00 0.00 32 1017.8
20260902203504 78 94 9.0 13.0 0.00 0.00 0.00 32 1017.9
20260902203003 78 94 7.0 14.0 0.00 0.00 0.00 30 1002.2
20260902202506 78 111 8.0 14.0 0.00 0.00 0.00 30 1018.0
20260902202005 78 82 7.0 12.0 0.00 0.00 0.00 31 1018.0
20260902201504 78 77 8.0 13.0 0.00 0.00 0.00 31 1018.0
20260902201502 78 77 7.0 13.0 0.00 0.00 0.00 31 1002.3
20260902200006 78 67 9.0 14.0 0.00 0.00 0.00 31 1018.2
20260902195503 78 77 7.0 14.0 0.00 0.00 0.00 29 1018.3
20260902195005 79 84 8.0 13.0 0.00 0.00 0.00 31 1018.2
20260902194504 79 40 4.0 11.0 0.00 0.00 0.00 29 1018.3
20260902194502 79 40 4.0 11.0 0.00 0.00 0.00 29 1002.6
20260902193505 79 119 6.0 13.0 0.00 0.00 0.00 29 1018.4
20260902193005 79 82 8.0 12.0 0.00 0.00 0.00 31 1018.3
20260902193002 79 82 8.0 12.0 0.00 0.00 0.00 31 1002.7
20260902192005 79 66 7.0 15.0 0.00 0.00 0.00 30 1018.5
20260902191504 79 42 7.0 13.0 0.00 0.00 0.00 31 1018.5
20260902191006 79 38 7.0 12.0 0.00 0.00 0.00 31 1018.7
20260902190504 79 86 7.0 12.0 0.00 0.00 0.00 31 1018.8
20260902190007 79 103 6.0 12.0 0.00 0.00 0.00 30 1018.9
20260902190003 79 103 6.0 12.0 0.00 0.00 0.00 30 1003.5
20260902185005 79 90 8.0 11.0 0.00 0.00 0.00 30 1019.1
20260902184602 79 40 5.0 14.0 0.00 0.00 0.00 29 1003.8
20260902184507 79 20 6.0 14.0 0.00 0.00 0.00 30 1003.8
20260902184505 79 20 7.0 14.0 0.00 0.00 0.00 30 1019.1
20260902184005 78 59 10.0 14.0 0.00 0.00 0.00 31 1019.2
20260902183504 78 74 2.0 8.0 0.00 0.00 0.00 31 1019.3
20260902183006 77 122 3.0 10.0 0.00 0.00 0.00 31 1019.4
20260902183003 77 122 3.0 10.0 0.00 0.00 0.00 31 1004.1
20260902182504 77 89 7.0 11.0 0.00 0.00 0.00 32 1019.4
20260902182005 78 87 8.0 11.0 0.00 0.00 0.00 31 1019.6
20260902181505 77 101 2.0 8.0 0.00 0.00 0.00 30 1019.7
20260902181502 77 101 1.0 8.0 0.00 0.00 0.00 30 1004.3
20260902181006 77 113 4.0 5.0 0.00 0.00 0.00 32 1019.7
20260902180504 77 127 2.0 11.0 0.00 0.00 0.00 30 1019.7
20260902180007 77 103 4.0 14.0 0.00 0.00 0.00 30 1019.8
20260902180005 77 103 3.0 14.0 0.00 0.00 0.00 30 1004.5
20260902175006 77 24 4.0 9.0 0.00 0.00 0.00 31 1019.9
20260902174502 77 14 4.0 10.0 0.00 0.00 0.00 32 1004.7
20260902174005 77 19 6.0 10.0 0.00 0.00 0.00 32 1020.1
20260902173006 76 75 4.0 8.0 0.00 0.00 0.00 35 1020.2
20260902173002 76 75 3.0 8.0 0.00 0.00 0.00 35 1004.9
20260902172504 76 78 3.0 8.0 0.00 0.00 0.00 35 1020.2
20260902172005 76 155 2.0 6.0 0.00 0.00 0.00 35 1020.2
20260902171504 76 88 4.0 10.0 0.00 0.00 0.00 34 1020.3
20260902171502 76 88 3.0 10.0 0.00 0.00 0.00 34 1005.0
20260902171000 76 136 7.0 10.0 0.00 0.00 0.00 34 1020.4
20260902170504 76 170 5.0 7.0 0.00 0.00 0.00 33 1020.4
20260902170006 76 15 1.0 6.0 0.00 0.00 0.00 33 1020.5
20260902170003 76 15 1.0 6.0 0.00 0.00 0.00 33 1005.2
20260902165505 75 48 4.0 8.0 0.00 0.00 0.00 34 1020.5
20260902165005 75 37 5.0 8.0 0.00 0.00 0.00 34 1020.4
20260902164504 76 69 4.0 8.0 0.00 0.00 0.00 34 1020.5
20260902164006 75 5 1.0 4.0 0.00 0.00 0.00 35 1020.5
20260902163503 75 360 2.0 5.0 0.00 0.00 0.00 35 1020.5
20260902163005 74 53 1.0 6.0 0.00 0.00 0.00 34 1020.5
20260902163002 74 53 1.0 6.0 0.00 0.00 0.00 34 1005.2
20260902162504 74 42 4.0 8.0 0.00 0.00 0.00 34 1020.5
20260902162005 74 50 5.0 8.0 0.00 0.00 0.00 35 1020.4
20260902161502 74 130 3.0 7.0 0.00 0.00 0.00 37 1005.2
20260902160503 74 43 3.0 10.0 0.00 0.00 0.00 36 1020.5
20260902160008 74 38 6.0 10.0 0.00 0.00 0.00 36 1020.5
20260902160004 74 38 5.0 10.0 0.00 0.00 0.00 36 1005.4
20260902155505 74 28 2.0 5.0 0.00 0.00 0.00 34 1020.5
20260902155005 74 327 1.0 4.0 0.00 0.00 0.00 35 1020.6
20260902154505 74 314 1.0 4.0 0.00 0.00 0.00 35 1005.6
20260902154005 74 34 2.0 3.0 0.00 0.00 0.00 37 1020.7
20260902153503 73 34 1.0 5.0 0.00 0.00 0.00 35 1020.8
20260902153005 73 34 2.0 5.0 0.00 0.00 0.00 36 1020.7
20260902153002 73 34 1.0 5.0 0.00 0.00 0.00 36 1005.7
20260902152505 73 17 2.0 5.0 0.00 0.00 0.00 35 1020.7
20260902152005 73 17 2.0 6.0 0.00 0.00 0.00 36 1020.7
20260902151504 73 17 3.0 6.0 0.00 0.00 0.00 37 1005.6
20260902151005 73 23 3.0 4.0 0.00 0.00 0.00 37 1020.7
20260902150505 73 23 2.0 3.0 0.00 0.00 0.00 39 1020.7
20260902150007 72 23 2.0 4.0 0.00 0.00 0.00 38 1020.6
20260902150002 72 23 1.0 4.0 0.00 0.00 0.00 38 1005.7
20260902145505 72 23 2.0 4.0 0.00 0.00 0.00 38 1020.5
20260902144506 71 23 1.0 3.0 0.00 0.00 0.00 44 1005.5
20260902144005 70 292 1.0 3.0 0.00 0.00 0.00 42 1020.5
20260902143504 69 257 1.0 2.0 0.00 0.00 0.00 46 1020.5
20260902143008 68 217 1.0 2.0 0.00 0.00 0.00 46 1020.5
20260902143005 68 217 1.0 2.0 0.00 0.00 0.00 46 1005.5
20260902142505 67 217 1.0 2.0 0.00 0.00 0.00 49 1020.5
20260902142005 67 217 1.0 2.0 0.00 0.00 0.00 51 1020.4
20260902141505 66 217 2.0 3.0 0.00 0.00 0.00 52 1020.4
20260902141503 66 217 1.0 3.0 0.00 0.00 0.00 52 1005.4
20260902141007 66 217 2.0 3.0 0.00 0.00 0.00 53 1020.4
20260902140504 66 217 1.0 2.0 0.00 0.00 0.00 54 1020.4
20260902140007 65 217 2.0 3.0 0.00 0.00 0.00 57 1020.3
20260902140003 65 217 1.0 3.0 0.00 0.00 0.00 57 1005.4
20260902135505 64 217 2.0 3.0 0.00 0.00 0.00 61 1020.4
20260902135005 63 217 0.0 0.0 0.00 0.00 0.00 61 1020.3
20260902134504 61 217 0.0 2.0 0.00 0.00 0.00 64 1005.4
20260902134005 60 217 1.0 2.0 0.00 0.00 0.00 65 1020.2
20260902133003 57 217 0.0 1.0 0.00 0.00 0.00 69 1005.3
20260902132504 57 217 0.0 3.0 0.00 0.00 0.00 70 1020.1
20260902132006 56 217 2.0 3.0 0.00 0.00 0.00 71 1020.0
20260902131503 55 202 2.0 3.0 0.00 0.00 0.00 73 1020.0
20260902131006 54 202 0.0 2.0 0.00 0.00 0.00 75 1019.9
20260902130505 53 202 1.0 2.0 0.00 0.00 0.00 75 1019.9
20260902130008 53 202 0.0 1.0 0.00 0.00 0.00 75 1019.8
20260902130002 53 202 0.0 1.0 0.00 0.00 0.00 75 1004.8
20260902125504 53 165 0.0 1.0 0.00 0.00 0.00 75 1019.8
20260902125005 53 161 0.0 2.0 0.00 0.00 0.00 74 1019.8
20260902124504 53 161 1.0 5.0 0.00 0.00 0.00 74 1019.7
20260902124502 53 161 0.0 5.0 0.00 0.00 0.00 74 1004.8
20260902124004 53 161 3.0 5.0 0.00 0.00 0.00 75 1019.6
20260902123505 53 161 2.0 2.0 0.00 0.00 0.00 75 1019.6
20260902123006 54 161 1.0 2.0 0.00 0.00 0.00 72 1019.5
20260902123002 54 161 1.0 2.0 0.00 0.00 0.00 72 1004.5
20260902122505 54 161 0.0 3.0 0.00 0.00 0.00 71 1019.4
20260902122004 55 161 1.0 5.0 0.00 0.00 0.00 71 1019.4
20260902121505 55 161 4.0 6.0 0.00 0.00 0.00 70 1019.4
20260902121502 55 161 4.0 6.0 0.00 0.00 0.00 70 1004.4
20260902121005 56 161 4.0 6.0 0.00 0.00 0.00 70 1019.2
20260902120504 55 161 3.0 5.0 0.00 0.00 0.00 70 1019.2